Regional Weather Roundup
Issued by NWS

Home | Current Version | Previous Version | Graphics & Text | Print | Product List | Glossary On
Versions: 1 2 3 4 5 6 7 8 9 10 11 12 13 14 15 16 17 18 19 20 21 22 23 24 25 26 27 28 29 30 31 32 33 34 35 36 37 38 39 40 41 42 43 44 45 46 47 48 49 50
591
ASUS43 KDTX 282301
RWRMI
MICHIGAN HOURLY REGIONAL WEATHER ROUNDUP
NATIONAL WEATHER SERVICE DETROIT/PONTIAC MI
700 PM EDT SAT MAY 28 2016

NOTE: "FAIR" INDICATES FEW OR NO CLOUDS BELOW 12,000 FEET WITH NO
SIGNIFICANT WEATHER AND/OR OBSTRUCTION TO VISIBILITY.

MIZ047>049-052>055-059>063-066>070-074>076-081>083-290000-
SOUTHEAST LOWER MICHIGAN

CITY           SKY/WX    TMP DP  RH WIND       PRES   REMARKS
ADRIAN         MOSUNNY   82  62  50 SW15      30.01R
ALMA           CLOUDY    81  61  50 SW5       29.96S
ANN ARBOR      PTSUNNY   83  59  44 S9        30.00R
BAD AXE        PTSUNNY   82  71  68 S13G18    29.98S
CARO           CLOUDY    84  59  42 S12       29.97S
DETROIT CITY   CLOUDY    83  64  52 S12G22    30.01R
DETROIT        CLOUDY    81  65  58 SE12      30.01S
FLINT          SUNNY     86  59  39 S13       29.98S
GROSSE ILE     CLOUDY    73  66  78 SE17      30.01F
HILLSDALE      CLOUDY    81  57  44 S17       30.01R
HOWELL         PTSUNNY   84  57  40 S10G17    29.99S

CITY           SKY/WX    TMP DP  RH WIND       PRES   REMARKS
JACKSON        CLOUDY    84  61  45 S10       29.98F
LAMBERTVILLE   CLOUDY    83  62  50 S10G17    30.02F
LANSING        MOSUNNY   84  59  42 S14       29.97S
LAPEER         FAIR      85  54  34 SW12G18   30.00R
MASON          MOSUNNY   83  62  48 S7G20     29.97S
MONROE         CLOUDY    82  65  57 S9G22     30.01S
PONTIAC        PTSUNNY   84  59  42 S14G21    29.99S
PORT HOPE        N/A     79  69  71 SE6       29.96F
PORT HURON     LGT RAIN  73  70  88 S6        30.02S
TRI CITIES     MOSUNNY   85  62  46 SW10      29.96S
MIDLAND        FAIR      82  59  45 SW10G17   29.95R
SAGINAW HB     MOSUNNY   84  61  45 S9        29.96S
$$
MIZ043>046-050>051-056>058-064>065-071>073-077>080-290000-
SOUTHWEST LOWER MICHIGAN

CITY           SKY/WX    TMP DP  RH WIND       PRES   REMARKS
BATTLE CREEK   CLOUDY    81  58  45 SW12      29.97S
BENTON HARBOR  MOSUNNY   83  61  47 S10G21    29.92F
BIG RAPIDS     CLOUDY    74  70  88 S3        29.94F
COLDWATER      CLOUDY    84  55  37 S8G18     29.97S
FREMONT        CLOUDY    76  64  66 SW12      29.93F
HOLLAND        MOSUNNY   81  64  56 S9        29.93F
GRAND RAPIDS   PTSUNNY   84  61  45 SW10G20   29.95S
IONIA          CLOUDY    82  61  47 SW12      29.95S
KALAMAZOO      CLOUDY    78  66  66 S8        29.96S
LUDINGTON      CLOUDY    75  65  70 S14G23    29.90F
MARSHALL       PTSUNNY   83  61  46 S8        29.96S
MOUNT PLEASANT CLOUDY    81  62  52 S7        29.95S
MUSKEGON       CLOUDY    77  63  61 S13       29.93F
SOUTH HAVEN    PTSUNNY   82  62  51 SW10      29.93F
$$
MIZ016>042-290000-
NORTHERN LOWER MICHIGAN

CITY           SKY/WX    TMP DP  RH WIND       PRES   REMARKS
ALPENA         SUNNY     85  62  46 SW9       29.91F
BEAVER ISLAND  CLOUDY    73  61  67 SW16G24   29.89S
BELLAIRE       CLOUDY    82  61  49 SW7       29.89R
CADILLAC       CLOUDY    75  65  70 S12       29.94S
CHARLEVOIX     CLOUDY    74  63  68 W5        29.92S
FRANKFORT      SUNNY     73  64  73 SW13G22   29.89S
GAYLORD        CLOUDY    80  61  52 SW14      29.94R
GRAYLING       LGT RAIN  80  64  59 S9        29.95S
HARBOR SPRINGS MOSUNNY   65  60  82 CALM      29.90S
HOUGHTON LAKE  PTSUNNY   77  64  64 S12       29.95R
MANISTEE       MOSUNNY   79  63  57 S14G24    29.90F
OSCODA         CLOUDY    84  60  44 S14       29.94R
PELLSTON       MOSUNNY   81  64  56 W8        29.90R
ROGERS CITY    SUNNY     83  59  43 S10G16    29.91F
TRAVERSE CITY  CLOUDY    81  62  52 SW10G24   29.87S
$$
MIZ007>008-015-290000-
EASTERN UPPER MICHIGAN

CITY           SKY/WX    TMP DP  RH WIND       PRES   REMARKS
KINROSS          N/A     79  66  65 SW3       29.90S
MACKINAC ISLAN SUNNY     72  62  71 W5        29.90S
NEWBERRY       MOSUNNY   71  64  77 SW17G29   29.88S
S. S. MARIE    SUNNY     75  68  78 VRB5      29.89S
MUNISING         N/A     73  64  73 S13G23    29.80S
$$
MIZ004>006-011>014-085-290000-
CENTRAL UPPER MICHIGAN

CITY           SKY/WX    TMP DP  RH WIND       PRES   REMARKS
MANISTIQUE     CLOUDY    61  58  89 S7        29.87S
ESCANABA         N/A    N/A N/A N/A MISG        N/A
MENOMINEE      PTSUNNY   74  65  73 S9G17     29.82R
SAWYER-GWINN   PTSUNNY   73  64  73 SE17      29.79F
$$
MIZ001>003-009>011-084-290000-
WESTERN UPPER MICHIGAN

CITY           SKY/WX    TMP DP  RH WIND       PRES   REMARKS
IRON MOUNTAIN  MOSUNNY   79  58  48 S17G26    29.78S
HOUGHTON       CLOUDY    67  63  87 N9        29.75F
COPPER HARBOR    N/A     52  52 100 CALM      29.76S
IRONWOOD       PTSUNNY   64  64 100 W12       29.77R
$$

ABBREVIATIONS USED IN REMARKS
   TC - TEMPERATURE IN CELSIUS
  WCI - WIND CHILL INDEX
   HX - HEAT INDEX
  VSB - VISIBILITY





USA.gov is the U.S. government's official web portal to all federal, state and local government web resources and services.